Tracking 31027 objects as of 19-Jul-2025
HD Live streaming from Space Station
objects crossing your sky now

STARLINK-6035

Track STARLINK-6035 now!
10-day predictions
STARLINK-6035 is classified as:


NORAD ID: 56323
Int'l Code: 2023-058G
Perigee: 569.5 km
Apogee: 570.8 km
Inclination: 97.7 °
Period: 95.9 minutes
Semi major axis: 6941 km
RCS: Unknown
Launch date: April 27, 2023
Source: United States (US)
Launch site: AIR FORCE WESTERN TEST RANGE (AFWTR)
Your satellite tracking list
IRIDIUM 33 DEB
Track 1 satellite(s)




NASA's NSSDC Master Catalog

Two Line Element Set (TLE):
1 56323U 23058G   25199.51803487 -.00000394  00000-0 -26066-4 0  9991
2 56323  97.6533 200.6294 0000974 112.7071 247.4256 15.01256561122632
Source of the keplerian elements: AFSPC